NOAA 16 DEB, 41094

Orbit data source: Space-Track

NOAA 16 DEB, 41094 is space debris in SSO originally from a launch on Thu, 21 Sep 2000 UTC launched from the Air Force Western Test Range (AFWTR). Debris objects in space refer to the collection of defunct objects orbiting the Earth. Examples of debris include non-operational satellites, rocket bodies, and fragments generated from explosions, collisions, or faulty payload assembly.

Loading next visibility...
Identifier
41094, 2000-055BD
Orbit
SSO
Country
Flag of USUS
Related business
Manufacturer
Unknown
Mission
Spacecraft
Bus & Motor
Unknown
Mass
Unknown
Launch date (UTC)
2000-09-21 (25 years ago)
Launch vehicle
Unknown
Launch site
Air Force Western Test Range (AFWTR)
Object type
Payload
Rocket body
Debris
Shape & HBR
Unknown shape, 0.1 m
Radar Cross Section
Small (<0.1 m²)

Expand to show TLE details & history
Last TLE update: 16 hours ago

TLE from 16 hours ago
0 NOAA 16 DEB
1 41094U 00055BD  25294.70105268  .00038745  00000-0  62630-2 0  9995
2 41094  98.9934 210.2125 0037451 312.5211  47.2831 14.70719403518140
Epoch: 2025-10-21T16:49Z
TLE epoch observation values (Epoch: 2025-10-21T16:49:30.951Z)
Latitude
-0.00004°
Longitude
-72.55169°
Altitude
643.918 km
Speed
7.546 km/s
True Right ascension
14h 00m 51s
True Declination
0° 00' 00"
Sunlit
Object was in daylight at epoch
Visualization orbit readout
Latitude
Unknown
Longitude
Unknown
Altitude
Unknown
Speed
Unknown
Apparent Right ascension
Unknown
Apparent Declination
Unknown
Sunlit
N/A
Visualization observer readout
Local Sidereal Time
03:55:06
Azimuth
Unknown
Elevation
Unknown
Doppler factor
Unknown
Orbital elements
Apogee altitude
682.221 km
Perigee altitude
629.535 km
Semi-major axis
7,034.015 km
Eccentricity
0.00375
Inclination
98.9934°
RAAN
210.2125°
Arg. of periapsis
312.5211°
True anomaly
47.59941°
Mean anomaly
47.2831°
Eccentric anomaly
47.44115°
Mean motion
3.67907 °/min
Orbital period
97.85 mins
BSTAR
0.006263
Loading maneuver chart data...
Computing Atmospheric mass density...
Loading historical data...
Loading historical data...
Loading historical data...
Loading historical data...
Loading historical data...
Loading historical data...
Loading historical data...

Documentation

Showing up to 5 results
|